Location: Campillo
(40.8621°N, 4.2488°W)
Time: 11:02:54
(UTC+00:00)

Cosmos 1503 Rocket - Visible Passes

Search period start: 20 September 2021 00:00
Search period end: 30 September 2021 00:00
Orbit: 753 x 790 km, 74.0° (Epoch: 19 September)

Date Brightness Start Highest point End Pass type
(mag) Time Alt. Az. Time Alt. Az. Time Alt. Az.
20 Sep 6.5 04:47:08 10° N 04:51:20 24° ENE 04:55:30 10° ESE visible
20 Sep 3.9 19:24:02 10° S 19:29:11 65° ESE 19:34:20 10° NNE visible
20 Sep 6.7 21:08:28 10° W 21:11:48 17° NW 21:15:07 10° NNW visible
21 Sep 7.0 04:11:59 10° NNE 04:15:01 15° NE 04:18:02 10° E visible
21 Sep 4.5 18:48:32 10° SSE 18:53:19 38° ESE 18:58:05 10° NE visible
21 Sep 6.1 20:31:10 10° WSW 20:35:31 26° WNW 20:39:52 10° N visible
22 Sep 4.4 05:16:33 10° NNW 05:21:44 69° ENE 05:26:54 10° SSE visible
22 Sep 5.2 19:54:24 10° SW 19:59:20 42° WNW 20:04:16 10° N visible
23 Sep 5.4 04:40:45 10° N 04:45:38 41° ENE 04:50:33 10° SE visible
23 Sep 4.3 19:18:04 10° SSW 19:23:16 71° WNW 19:28:27 10° NNE visible
24 Sep 6.2 04:05:10 10° N 04:09:28 25° ENE 04:13:45 10° ESE visible
24 Sep 4.0 18:42:07 10° S 18:47:17 69° ESE 18:52:26 10° NNE visible
24 Sep 6.9 20:26:48 10° W 20:29:57 16° NW 20:33:05 10° NNW visible
25 Sep 6.8 03:29:57 10° NNE 03:33:10 16° NE 03:36:22 10° E visible
25 Sep 3.9 05:10:39 10° NNW 05:15:48 67° WSW 05:20:59 10° S visible
25 Sep 6.3 19:49:23 10° WSW 19:53:38 25° WNW 19:57:54 10° N visible
26 Sep 4.2 04:34:38 10° NNW 04:39:50 73° ENE 04:45:02 10° SSE visible
26 Sep 5.5 19:12:35 10° SW 19:17:27 40° WNW 19:22:19 10° N visible
27 Sep 5.1 03:58:48 10° N 04:03:46 43° ENE 04:08:43 10° SE visible
27 Sep 5.1 05:41:38 10° NW 05:45:34 22° W 05:49:30 10° SSW visible
27 Sep 4.5 18:36:12 10° SSW 18:41:21 67° WNW 18:46:32 10° NNE visible
28 Sep 6.0 03:23:12 10° N 03:27:35 27° ENE 03:31:59 10° ESE visible
28 Sep 4.5 05:05:01 10° NW 05:09:46 37° WSW 05:14:32 10° SSW visible
28 Sep 6.9 19:45:08 10° W 19:48:05 15° NW 19:51:02 10° NNW visible
29 Sep 6.6 02:47:55 10° NNE 02:51:18 17° NE 02:54:41 10° E visible
29 Sep 3.9 04:28:45 10° NNW 04:33:54 63° WSW 04:39:03 10° S visible
29 Sep 6.4 19:07:38 10° WSW 19:11:46 24° WNW 19:15:55 10° N visible
